TIME,DELAY(SENSOR),PRES,OXYGEN,RAWTEMP,T(OPTODE),TCPHASE,FLUOR,BETA(BETA700),BETA(BETA412),BETA(BETA440),CDOM,C(CSC),ED(ED412.40),ED(ED444.00),ED(ED489.70),ED(ED554.30),LU(LU411.80),LU(LU443.40),LU(LU489.60),LU(LU554.10),COMP,TILTX,TILTY,CHECK
1354333547,5805,887.1900024414062000,45.9647598266601560,666.3828735351562000,4.4176077842712400,54.1944198608398440,52,99,86,78,79,15115,2147753325,2147419355,2148012251,2147876315,2147643940,2147057581,2148261238,2147195894,2249,4,13,21512
1354337143,5813,961.1300048828125000,49.0691719055175800,673.9276733398438000,4.1683621406555180,53.8492088317871100,53,99,86,80,80,15117,2147755876,2147419163,2148010313,2147875858,2147643044,2147058605,2148264576,2147198848,1120,4,13,11233
1354340743,5807,977.0399780273438000,49.6216011047363300,675.1837158203125000,4.1268081665039060,53.7873611450195300,52,97,88,79,81,15119,2147759067,2147420982,2148006875,2147874724,2147642541,2147057152,2148259026,2147197037,208,4,13,51641
1354344343,5808,990.5100097656250000,49.1039810180664060,674.3839721679688000,4.1532688140869140,53.8529090881347660,53,99,87,79,80,15115,2147756251,2147418724,2148008640,2147874139,2147642148,2147064310,2148263104,2147197824,18,4,13,61086
1354347943,5808,1001.0599975585938000,48.1896514892578100,673.0446777343750000,4.1975688934326170,53.9579086303710940,53,97,87,78,81,15117,2147758189,2147417472,2148011538,2147875254,2147642057,2147061568,2148254729,2147196699,3509,4,13,43746
1354351543,5809,1005.7100219726562000,48.1529693603515600,673.0541992187500000,4.1972517967224120,53.9643211364746100,53,98,87,79,82,15117,2147757293,2147420214,2148008740,2147873965,2147641462,2147058230,2148258285,2147199003,59,5,13,36858
1354355143,5810,998.3699951171875000,47.9208984375000000,673.0709228515625000,4.1967010498046875,53.9989814758300800,53,100,86,78,81,15116,2147756416,2147420708,2148007734,2147876763,2147640347,2147058779,2148263954,2147195757,3330,4,13,55466
1354358743,5808,999.5399780273438000,48.1190414428710940,673.8026733398438000,4.1724967956542970,53.9770393371582000,54,98,87,80,81,15084,2147757906,2147420150,2148011218,2147877120,2147643337,2147060242,2148261412,2147196251,305,4,13,15588
1354362343,5806,1004.9199829101562000,47.9395103454589840,673.5264892578125000,4.1816329956054690,53.9991493225097660,52,107,87,79,80,15115,2147757184,2147419419,2148010230,2147872356,2147643748,2147059638,2148253851,2147197732,285,4,13,24375
1354365943,5810,998.4099731445312000,48.0746192932128900,674.6505126953125000,4.1444511413574220,53.9988708496093750,51,101,84,79,82,15115,2147758372,2147420644,2148008585,2147875081,2147645586,2147053531,2148266486,2147195785,2560,4,13,27190
1354369543,5807,999.0599975585938000,48.9197196960449200,675.8176879882812000,4.1058249473571780,53.8912811279296900,52,100,85,78,82,15116,2147756169,2147419748,2148009225,2147872118,2147644342,2147058861,2148265837,2147197632,203,4,13,10026
1354373143,5810,997.9799804687500000,49.1272392272949200,676.5180053710938000,4.0826420783996580,53.8696212768554700,53,99,87,84,80,15106,2147757558,2147415332,2148008905,2147874870,2147644352,2147059465,2148267894,2147196132,568,4,13,62966
1354376743,5809,999.2299804687500000,49.0234603881835940,676.8123779296875000,4.0728950500488280,53.8919715881347660,52,345,87,78,82,15115,2147757952,2147420653,2148009837,2147874313,2147643236,2147061531,2148260717,2147198582,3074,4,13,33359
1354380343,5805,1004.5999755859375000,48.8958816528320300,675.5485229492188000,4.1147332191467285,53.8911705017089840,52,97,83,79,81,15116,2147756635,2147419657,2148005769,2147874212,2147644178,2147057472,2148261741,2147198637,197,4,13,31791
1354383943,5808,1007.3900146484375000,48.9156112670898440,676.4445800781250000,4.0850729942321780,53.9024314880371100,52,100,90,77,82,15110,2147761920,2147420260,2148009325,2147874349,2147645805,2147059785,2148261174,2147195062,631,4,13,2412
1354387543,5809,1000.2600097656250000,48.0845794677734400,675.0825195312500000,4.1301589012146000,54.0024986267089840,52,100,87,79,81,15114,2147757485,2147416091,2148010121,2147874020,2147641554,2147058560,2148261074,2147195812,220,4,13,55691
1354391143,5810,996.8499755859375000,48.3566703796386700,675.4464721679688000,4.1181092262268070,53.9674301147460940,52,101,88,78,80,15115,2147758848,2147420662,2148010066,2147877604,2147642605,2147057910,2148264246,2147198171,598,4,13,5026
1354394743,5808,1004.0700073242188000,48.7000694274902340,675.4016723632812000,4.1195950508117680,53.9176788330078100,52,101,88,79,81,15115,2147758162,2147419602,2148008822,2147872502,2147642834,2147060288,2148264896,2147196717,511,4,13,56001
1354398343,5811,1005.4600219726562000,48.8233184814453100,676.6586303710938000,4.0779881477355960,53.9189796447753900,53,98,85,79,81,15115,2147758272,2147420425,2148008630,2147878665,2147646555,2147056228,2148262116,2147198354,3465,4,13,6533
1354401943,5809,1005.3499755859375000,48.8655700683593750,675.8920288085938000,4.1033668518066410,53.9028701782226560,52,99,86,79,81,15109,2147756342,2147417609,2148009179,2147874386,2147640950,2147053824,2148263442,2147200347,15,4,13,58452
1354405543,5807,1004.2100219726562000,48.7029304504394500,676.0375976562500000,4.0985450744628910,53.9234085083007800,52,98,87,78,81,15114,2147758838,2147421650,2148010742,2147872064,2147642029,2147059675,2148262665,2147192832,3394,4,13,22345
1354409143,5809,1008.5300292968750000,48.8266487121582000,676.2946777343750000,4.0900340080261230,53.9136886596679700,52,98,83,79,81,15112,2147761700,2147418770,2148009453,2147874395,2147643081,2147059931,2148264374,2147196992,897,4,13,57976
1354412743,5807,1008.6599731445312000,48.9433708190918000,676.4238891601562000,4.0857558250427250,53.8980484008789060,52,97,91,83,81,15112,2147759058,2147419501,2148010194,2147872649,2147643629,2147061577,2148261485,2147199177,3029,4,13,50934
1354416343,5808,998.7700195312500000,48.9752693176269500,677.4703979492188000,4.0511040687561035,53.9041290283203100,53,98,89,78,81,15113,2147755218,2147418294,2148008329,2147873600,2147644150,2147055250,2148265124,2147198043,137,4,13,37557
1354419943,5812,997.2800292968750000,48.9075012207031250,678.4367065429688000,4.0190958976745605,53.9309692382812500,51,101,87,79,82,15112,2147759232,2147421915,2148010816,2147874395,2147644955,2147056091,2148266953,2147198838,206,4,13,23445
1354423543,5810,996.3900146484375000,49.3694610595703100,678.7352294921875000,4.0092067718505860,53.8674583435058600,53,102,89,79,82,15115,2147758208,2147416320,2148011766,2147874258,2147642450,2147055862,2148262390,2147200027,163,4,13,44146
1354427143,5810,1007.6500244140625000,49.4037094116210940,679.0662231445312000,3.9982380867004395,53.8691291809082000,52,100,86,77,81,15114,2147758208,2147422262,2148008338,2147873938,2147645586,2147053942,2148257088,2147195392,241,4,13,15851
1354430743,5810,1009.5999755859375000,49.2689285278320300,676.6577758789062000,4.0780138969421390,53.8561897277832000,53,99,85,78,82,15113,2147759917,2147421312,2148009636,2147876434,2147644580,2147055414,2148266614,2147195081,3233,4,13,47970
1354434343,5810,1014.0100097656250000,48.2730216979980500,675.4213867187500000,4.1189398765563965,53.9781990051269500,53,97,87,79,82,15110,2147759296,2147422153,2148010002,2147874916,2147643282,2147055552,2148259748,2147203584,3004,4,13,33571
1354437943,5810,1023.5800170898438000,48.3485107421875000,674.5463256835938000,4.1479001045227050,53.9598617553710940,53,100,88,80,81,15109,2147755254,2147420818,2148008795,2147875958,2147640246,2147055460,2148268032,2147196589,362,4,13,20097
1354441543,5811,1021.9500122070312000,47.6809310913085940,673.3937988281250000,4.1860218048095700,54.0379600524902340,53,99,88,79,82,15109,2147757952,2147419428,2148008109,2147876690,2147644251,2147056402,2148264411,2147197275,335,4,13,28989
1354445143,5812,1023.1500244140625000,47.0600013732910160,673.1829833984375000,4.1929931640625000,54.1206092834472660,52,103,89,78,81,15105,2147758948,2147420955,2148009956,2147873627,2147644608,2147058514,2148261577,2147200640,48,4,13,28012
1354448743,5806,1025.4200439453125000,47.3376998901367200,673.2357788085938000,4.1912479400634770,54.0827217102050800,52,99,87,80,81,15102,2147757266,2147422180,2148006921,2147875209,2147641828,2147054308,2148265709,2147198848,1103,4,13,45191
1354452343,5810,1018.6799926757812000,47.1311111450195300,674.0156250000000000,4.1654567718505860,54.1227302551269500,52,99,87,79,82,15103,2147751954,2147420086,2148009984,2147873216,2147643254,2147059629,2148263433,2147197156,3533,4,13,32192
1354455943,5813,1005.3300170898438000,48.3041000366210940,676.2700805664062000,4.0908489227294920,53.9808311462402340,52,99,86,79,81,15102,2147753856,2147423616,2148008548,2147875547,2147643913,2147059565,2148262893,2147198400,3487,4,13,1613
1354459543,5807,1003.9899902343750000,48.9363594055175800,677.7777709960938000,4.0409221649169920,53.9146194458007800,51,98,87,81,81,15104,2147755876,2147418651,2148010560,2147875611,2147641188,2147057078,2148266157,2147201106,490,4,13,21407
1354463143,5808,994.2800292968750000,49.1081504821777340,679.4799804687500000,3.9845259189605713,53.9105491638183600,53,100,86,80,81,15102,2147758290,2147420571,2148009956,2147874880,2147646445,2147056850,2148263680,2147199296,2,4,13,11410
1354466743,5808,998.1699829101562000,49.2686996459960940,680.0902709960938000,3.9642939567565920,53.8955612182617200,52,97,87,79,81,15104,2147758089,2147422902,2148007753,2147871981,2147642304,2147057124,2148265572,2147201380,3559,4,13,2771
1354470343,5810,1007.4699707031250000,49.6436996459960940,679.5294799804688000,3.9828829765319824,53.8406486511230500,53,98,89,81,81,15104,2147757284,2147420214,2148009298,2147873508,2147642038,2147058112,2148265865,2147199899,3,4,13,9547
1354473943,5810,1014.6799926757812000,49.5410995483398440,677.1489868164062000,4.0617470741271970,53.8207702636718750,53,99,89,78,81,15100,2147756708,2147419693,2148007177,2147877302,2147644827,2147057737,2148264292,2147202852,157,4,13,46173
1354477556,5806,1016.2700195312500000,49.0589218139648440,677.2437133789062000,4.0586128234863280,53.8933296203613300,53,98,87,79,81,15112,2147758006,2147419958,2148005961,2147874898,2147643657,2147059044,2148262509,2147197238,3566,4,13,49539
